GFSFLT1_850_thetae_057.txt.gz
Theta_e
349 350 349 349 349 347 345 344 343 343 343 344 342 342 341 341 342 343 343 342 342 342 342 339 339 338 339 343 343 345 345 346 347
348 350 349 349 349 348 346 345 343 342 342 343 343 343 341 341 342 343 344 343 342 343 343 340 334 334 336 341 343 346 347 347 345
346 348 350 350 349 349 347 344 343 342 341 340 342 343 341 339 341 342 344 344 342 342 343 341 336 331 337 341 342 344 345 347 349
340 345 348 349 349 349 348 346 343 343 344 342 342 341 341 340 341 342 344 345 343 342 343 343 340 334 334 340 341 342 343 344 346
338 342 346 348 349 349 349 348 346 344 344 345 343 342 341 342 342 343 344 345 346 343 342 343 343 338 333 337 340 342 343 344 344
339 343 346 348 348 348 349 349 347 347 346 345 346 346 344 343 343 344 344 345 345 344 343 343 344 341 335 333 335 338 342 344 345
331 337 343 346 347 347 347 348 348 347 346 346 346 347 346 346 345 345 345 345 345 344 343 343 344 343 337 334 332 333 338 343 345
330 330 333 342 344 344 345 346 346 347 346 345 345 346 346 346 345 346 346 346 345 344 343 343 344 344 343 337 335 333 333 338 342
340 340 340 335 344 345 344 344 344 344 346 345 344 345 345 345 346 346 346 346 346 345 344 344 344 344 344 344 339 332 331 331 335
335 338 340 342 336 344 340 341 342 343 344 345 345 345 345 345 345 346 346 346 345 345 344 344 344 344 345 344 342 336 331 330 331
330 333 336 339 340 335 341 341 346 345 346 345 345 345 345 345 345 345 346 346 346 345 345 344 344 344 344 344 341 337 333 331 331
327 333 338 341 340 335 332 342 344 344 345 345 345 345 345 345 345 345 346 346 346 345 345 344 343 343 343 342 338 336 334 335 336
331 336 340 345 341 338 333 339 345 344 344 345 344 344 345 345 343 343 343 343 344 344 344 343 343 341 339 339 338 338 337 338 339
332 336 341 349 342 346 340 343 346 344 345 344 344 345 345 342 342 344 344 346 347 347 346 346 345 345 344 345 345 345 346 347 347
327 333 338 346 348 346 346 344 344 344 344 345 346 346 346 344 345 346 347 348 348 348 348 348 349 349 350 351 351 352 353 354 355
318 319 328 335 343 347 347 346 347 346 346 346 346 346 346 346 347 348 348 348 349 350 350 350 350 351 351 352 352 353 354 354 355
317 316 316 320 344 349 349 347 346 347 346 346 346 347 347 348 348 349 349 349 350 350 350 351 352 355 355 353 353 354 353 352 353
316 316 315 315 315 318 340 347 350 354 352 349 349 348 348 349 349 350 351 351 354 352 353 355 355 355 357 356 355 352 350 352 351
314 314 314 314 314 315 316 332 344 344 343 348 356 355 353 353 354 353 353 354 354 354 354 354 352 355 357 356 354 356 355 353 353
314 313 313 312 312 313 314 315 316 334 343 340 341 343 342 347 352 356 353 344 347 345 344 347 350 354 355 354 352 356 357 357 357

GFSFLT1_850_thetae_060.txt.gz
Theta_e
350 351 350 350 348 347 347 348 349 349 348 345 342 339 339 330 333 345 348 347 348 348 346 346 348 351 348 341 348 345 346 351 351
346 348 349 350 351 351 349 348 348 348 349 346 342 344 342 333 337 341 347 347 347 348 348 347 348 349 351 350 349 351 351 351 353
343 345 349 350 351 351 352 350 349 350 350 349 347 346 345 341 338 340 341 348 346 348 349 344 346 345 346 348 349 351 349 353 353
339 345 348 349 350 351 352 351 349 350 350 351 349 346 348 346 344 342 340 343 343 344 344 343 342 342 337 342 349 350 346 349 353
338 339 344 348 349 350 351 352 350 349 350 350 350 348 344 342 344 340 346 341 342 343 344 343 342 343 340 333 342 350 350 347 352
337 338 340 345 347 349 351 351 351 350 349 349 349 349 349 346 344 346 345 340 342 343 344 345 343 343 343 337 334 344 346 342 348
335 338 341 344 347 347 351 351 351 351 350 349 349 349 349 348 339 340 340 341 342 343 345 345 344 343 343 341 335 341 346 348 341
334 332 336 341 346 348 350 352 352 352 352 351 350 350 350 350 341 341 341 342 343 344 344 344 344 344 343 344 341 342 339 344 346
339 339 339 337 343 346 349 351 353 354 352 352 351 351 350 350 344 343 343 343 344 344 345 345 345 344 343 344 346 344 337 334 339
336 337 339 342 343 342 345 349 351 353 353 352 352 351 350 349 347 346 345 344 345 345 345 345 344 344 344 343 344 342 337 333 332
336 338 339 340 341 343 343 345 346 352 353 353 352 352 350 348 345 346 346 346 345 346 346 346 345 344 344 344 343 341 339 339 338
335 339 341 342 343 344 346 345 346 349 352 354 353 352 347 345 345 345 346 347 346 346 346 346 345 344 344 343 342 341 339 341 343
335 339 342 345 347 349 349 349 345 347 351 352 353 351 346 347 346 346 346 347 346 346 346 345 346 346 344 342 340 339 338 340 342
327 331 338 345 352 353 351 351 345 347 351 351 351 354 354 353 350 346 346 346 346 346 346 348 345 345 343 341 339 339 336 336 339
323 325 329 344 354 352 350 346 343 349 351 352 354 354 354 354 349 351 353 346 346 347 347 346 348 345 347 346 338 337 336 336 338
319 321 323 330 346 353 354 351 351 354 352 353 355 356 356 355 349 353 352 346 347 348 347 356 356 358 358 358 358 352 347 348 349
315 315 315 320 325 342 352 355 355 355 355 356 356 357 358 358 352 355 357 358 358 358 358 358 358 359 359 360 360 361 362 353 352
314 313 314 314 319 325 333 342 350 353 357 357 357 358 359 359 359 358 359 359 360 360 359 360 360 360 360 361 361 362 363 364 363
314 314 314 315 315 318 323 328 339 350 355 357 356 357 357 357 358 360 359 360 360 359 360 359 360 360 361 362 363 363 363 361 359
317 318 316 316 317 315 320 317 324 336 346 353 354 356 357 359 360 358 359 360 361 358 356 356 356 357 360 361 363 360 360 358 357

GFSFLT1_850_thetae_063.txt.gz
Theta_e
349 350 350 350 349 349 349 349 349 348 350 351 348 342 336 330 333 344 346 348 348 347 346 346 348 349 352 352 356 353 352 350 350
349 349 350 349 350 349 349 350 350 350 350 352 352 349 343 334 331 333 344 347 345 351 347 347 347 351 354 352 351 354 353 352 353
345 349 350 350 350 349 349 350 351 351 351 353 354 352 348 343 334 332 337 347 350 350 349 347 349 349 350 353 352 352 353 351 352
343 348 348 349 350 351 350 350 351 351 352 353 354 353 352 349 348 345 330 346 348 350 351 351 347 350 351 351 352 352 353 350 353
338 340 345 347 348 351 352 353 351 351 351 352 353 354 353 350 349 348 346 337 345 349 348 349 352 349 348 344 348 351 353 353 351
337 339 343 346 348 350 351 353 354 352 351 350 351 354 353 352 352 351 347 346 340 344 344 344 349 351 347 346 343 347 353 353 353
335 337 340 342 346 348 350 352 354 353 352 351 351 352 352 352 352 352 349 347 342 341 341 342 343 344 346 347 348 347 349 353 354
336 337 338 339 341 346 350 352 354 354 353 351 351 350 350 351 353 352 351 346 347 340 341 341 342 344 345 346 351 350 348 349 352
340 340 337 338 343 346 349 352 355 355 354 353 351 351 350 350 352 353 350 350 346 344 341 341 342 344 344 345 350 349 347 346 347
339 339 340 342 342 344 347 351 354 355 355 354 353 353 352 351 351 349 349 346 345 341 341 341 343 344 344 344 344 346 348 346 344
339 339 340 341 341 342 345 348 350 354 356 355 355 353 356 353 353 352 348 349 344 340 340 342 343 344 344 344 344 341 343 345 343
338 341 343 344 344 344 344 345 347 349 354 358 355 357 354 357 355 356 353 348 346 345 344 344 344 345 345 345 344 343 340 342 344
335 337 340 343 347 348 349 349 348 347 351 354 357 357 357 357 357 358 358 354 349 345 345 345 346 348 347 345 344 342 341 342 344
332 334 335 335 344 354 355 354 351 348 348 352 355 357 359 359 358 358 359 359 358 351 348 357 352 356 352 347 344 343 342 341 342
325 330 332 332 338 354 361 356 355 354 348 352 354 356 358 359 359 358 359 358 358 357 354 354 357 353 357 358 350 347 342 339 338
321 324 328 329 333 343 356 358 353 354 352 355 354 355 357 358 359 360 359 359 359 361 358 358 359 361 359 358 356 357 349 338 335
319 321 325 326 330 337 351 355 357 356 359 357 357 356 358 358 359 359 359 361 362 361 360 360 359 359 359 357 353 351 355 353 343
320 322 322 319 323 328 336 347 355 357 357 358 358 358 359 359 360 360 358 360 360 360 358 358 357 354 353 352 354 356 358 361 363
319 321 320 315 316 320 324 337 347 355 356 358 358 358 359 360 360 361 360 360 359 358 359 358 359 359 359 361 360 361 361 361 363
319 318 318 316 316 316 318 322 336 349 352 356 357 358 360 360 360 360 360 360 361 360 361 360 360 360 360 360 362 361 361 363 362

GFSFLT1_850_thetae_069.txt.gz
Theta_e
345 348 349 349 348 347 347 346 345 344 344 344 341 334 338 338 336 341 346 347 347 349 347 345 350 345 343 342 340 340 342 345 337
349 349 348 348 349 348 347 347 347 346 345 345 344 335 332 337 335 341 343 346 349 352 350 345 349 351 348 347 345 342 339 341 343
345 348 348 348 349 350 348 347 347 347 347 345 345 344 333 331 331 330 343 344 346 347 349 349 349 351 350 348 346 338 345 346 343
340 340 341 347 346 349 350 350 348 348 348 347 346 346 343 332 331 329 330 344 344 346 345 346 347 352 350 348 347 342 340 344 346
343 344 346 335 339 340 349 350 351 349 348 348 347 346 347 344 332 329 328 328 343 343 347 342 345 348 350 350 348 348 343 344 345
345 344 347 346 343 343 335 348 350 351 349 349 349 348 347 347 347 336 329 328 328 338 336 344 345 352 349 350 350 347 341 340 340
343 345 342 344 340 340 337 344 348 352 351 351 351 351 350 349 349 348 342 332 329 328 329 334 345 350 345 345 347 346 341 340 338
342 345 344 345 341 343 343 345 350 352 353 352 353 354 354 353 352 351 350 346 339 332 329 329 332 336 342 342 342 341 339 340 339
335 340 344 346 346 344 349 345 348 348 353 354 353 355 356 356 355 354 353 352 348 342 336 332 332 333 335 339 340 339 340 340 340
336 336 338 339 341 348 347 342 342 344 346 354 354 354 355 356 356 356 355 355 354 351 346 341 339 337 333 333 334 337 339 340 342
333 332 335 337 337 338 345 343 342 349 351 355 354 355 354 354 355 355 354 354 355 355 352 348 345 342 339 334 332 335 338 340 344
331 331 332 334 335 335 339 348 349 346 343 351 355 355 354 353 353 354 354 354 354 354 355 353 351 350 347 342 334 332 335 341 343
327 327 327 330 332 333 333 338 350 349 340 347 347 354 357 352 352 353 353 352 353 353 352 353 353 352 350 347 340 334 333 337 341
324 325 326 328 330 330 332 335 340 351 339 339 343 352 358 355 353 353 353 353 352 352 353 352 353 352 352 350 344 338 336 337 339
322 323 325 326 327 328 330 335 337 344 344 350 355 351 356 358 357 354 355 355 353 353 353 353 353 353 352 351 348 342 338 338 341
321 322 324 324 324 325 328 335 338 340 346 350 355 355 350 358 358 358 357 357 356 354 354 354 354 355 354 353 349 346 343 342 343
320 321 322 323 323 320 321 330 337 341 343 350 353 354 355 351 359 359 359 359 358 357 357 357 357 357 357 356 356 356 352 347 347
318 319 322 321 321 321 317 321 328 337 341 347 353 354 357 358 354 361 360 361 361 360 359 359 359 359 359 360 360 357 355 350 348
317 320 321 320 321 318 317 318 321 330 337 343 351 355 359 358 354 360 360 361 361 362 363 362 362 361 360 360 359 360 359 357 353
316 318 319 318 319 317 316 317 318 323 331 336 348 355 360 363 365 363 361 361 362 362 362 361 362 363 363 361 362 361 360 362 359

GFSFLT1_850_thetae_072.txt.gz
Theta_e
348 345 347 348 347 344 344 343 343 343 343 343 342 337 341 338 342 346 346 349 348 348 348 347 345 342 347 346 340 341 344 342 340
345 345 347 348 347 346 344 343 343 343 343 343 343 342 335 340 336 344 346 347 348 348 346 346 345 348 343 344 341 337 340 341 339
345 347 347 348 348 347 346 345 345 344 344 344 344 343 342 335 337 336 345 346 349 344 347 347 345 349 349 346 346 343 339 338 342
342 346 348 348 349 348 347 347 346 346 345 344 344 344 344 343 334 335 338 344 347 348 349 351 347 349 350 350 348 346 338 342 342
342 346 348 348 349 348 348 347 347 347 347 346 345 345 344 344 342 332 334 338 344 346 349 350 349 349 349 351 349 347 346 338 342
344 344 346 346 344 346 348 349 348 347 347 347 347 346 346 345 345 341 330 331 340 343 346 348 347 346 346 350 350 348 347 342 335
343 342 344 344 340 339 340 338 347 349 349 349 348 348 347 346 345 345 342 329 328 337 344 345 347 346 345 346 348 348 348 345 336
342 344 345 345 345 342 340 341 338 348 348 350 349 349 349 348 346 346 346 345 334 327 330 341 343 342 348 350 351 348 347 346 344
338 338 339 340 344 346 345 343 342 339 350 350 349 350 350 350 349 348 347 347 347 343 330 328 331 340 337 347 349 348 346 343 340
336 337 335 335 335 343 345 347 346 345 344 351 350 353 353 352 351 350 350 349 349 349 348 340 330 329 331 334 341 344 341 340 340
329 332 335 332 333 333 339 344 345 346 344 346 348 350 351 355 355 354 353 353 352 351 349 349 345 337 332 331 331 332 333 335 339
324 328 331 330 330 331 331 333 344 346 346 346 346 344 349 353 356 356 355 355 354 353 352 350 349 347 343 337 335 336 335 334 335
321 326 326 326 327 327 327 331 337 346 346 345 343 352 353 353 351 354 355 355 355 354 353 351 348 349 349 347 343 341 341 340 337
321 322 324 324 324 325 327 328 332 343 345 342 340 344 348 349 348 354 355 355 354 353 353 353 352 351 348 347 346 345 345 344 343
320 320 320 323 323 323 323 326 330 334 342 343 341 341 338 345 350 354 357 356 355 353 353 353 353 353 352 351 349 345 344 344 344
317 319 318 320 321 321 321 321 326 333 336 338 342 340 337 340 350 353 356 357 356 354 354 353 353 354 353 352 352 350 345 342 341
316 316 317 320 321 320 320 319 321 324 333 337 338 341 339 338 346 351 357 356 357 355 354 354 354 354 354 353 353 352 350 347 343
315 315 316 319 320 320 319 318 321 321 325 333 335 337 342 342 351 350 355 357 358 358 357 356 355 355 354 354 354 354 353 352 349
312 315 316 317 318 319 318 317 318 321 321 326 333 336 341 348 355 355 352 356 358 357 359 358 357 357 357 357 357 357 357 357 356
312 314 315 316 317 318 319 317 316 316 318 322 328 333 337 346 355 360 358 359 358 360 360 360 360 359 358 359 360 360 359 360 359

GFSFLT1_850_thetae_075.txt.gz
Theta_e
348 349 347 347 347 348 347 346 341 340 341 341 341 341 339 334 335 343 345 346 346 347 348 346 346 344 346 348 342 344 342 341 339
348 348 348 347 347 348 348 347 345 342 341 341 341 341 342 335 333 343 344 346 346 348 348 348 347 347 343 346 349 344 343 346 343
345 348 347 346 347 347 347 348 347 345 343 342 342 342 342 342 333 333 339 345 345 347 348 348 346 348 346 343 345 346 342 341 343
341 345 347 346 348 347 347 347 346 346 343 342 342 342 343 342 342 332 333 340 345 346 347 347 346 348 348 347 347 346 346 341 342
342 343 346 346 345 346 346 346 346 346 344 343 342 343 343 343 343 343 331 331 339 345 346 347 347 349 348 349 350 349 347 346 342
342 342 346 346 347 347 347 344 344 344 344 343 343 343 343 343 343 343 343 333 330 341 345 346 348 349 350 348 348 349 349 348 345
342 343 345 345 346 344 347 348 346 346 345 345 345 345 344 344 344 344 344 344 335 328 339 344 346 348 349 348 347 347 348 348 346
338 338 340 342 344 344 342 342 339 340 345 347 347 347 346 346 346 345 345 345 344 340 327 333 341 345 347 348 348 346 345 346 346
332 335 334 334 335 342 345 345 343 343 341 343 347 347 348 348 347 347 346 346 346 345 344 329 328 338 343 345 347 347 347 347 347
325 330 332 331 332 333 339 343 345 345 343 341 346 348 348 349 349 349 349 348 347 346 346 345 341 328 329 338 343 343 345 347 348
324 329 328 327 327 328 330 334 340 345 345 344 344 349 350 351 350 350 350 350 350 349 348 347 347 346 341 329 327 330 340 340 344
321 324 324 324 325 325 326 329 336 340 344 345 343 346 351 349 351 352 353 353 353 353 352 351 350 349 348 347 340 332 328 329 332
320 321 321 321 321 323 324 325 330 336 343 345 346 347 348 347 349 352 355 356 356 355 354 353 353 352 351 348 348 344 338 335 331
319 320 320 320 319 320 321 321 324 330 335 341 342 343 340 348 350 349 352 353 353 354 354 354 354 353 353 352 347 346 345 341 340
317 317 317 318 318 318 319 320 321 323 328 333 337 341 342 341 346 346 345 347 348 352 354 354 354 354 354 352 352 349 346 344 343
311 316 316 316 317 318 319 319 320 322 322 325 331 335 338 341 340 340 341 343 345 353 354 356 356 355 354 352 352 352 351 349 346
310 311 314 315 315 318 319 319 320 319 322 323 324 329 333 335 340 340 339 345 345 351 352 353 355 356 355 354 352 352 352 351 351
309 310 312 314 315 316 318 319 319 320 321 320 322 325 329 332 336 343 341 350 348 350 348 351 352 355 355 354 353 353 353 353 353
307 308 311 312 314 316 316 319 319 319 321 321 321 323 325 329 332 339 348 352 351 352 351 351 353 355 355 355 356 355 354 355 355
306 307 309 312 314 315 316 316 318 319 318 319 320 320 323 326 331 336 343 350 354 350 349 351 353 354 353 356 358 357 356 356 356

GFSFLT1_850_thetae_078.txt.gz
Theta_e
347 350 350 348 346 346 347 347 344 341 342 342 341 341 340 337 336 340 340 339 342 345 346 346 343 343 343 345 345 342 345 339 340
344 348 350 349 348 347 346 347 347 343 340 340 341 340 340 339 336 338 334 338 343 344 344 346 348 346 346 344 345 346 343 345 343
339 341 348 349 348 347 347 346 346 347 344 341 340 340 341 340 340 336 334 338 342 343 343 345 346 348 348 347 343 343 347 342 344
341 341 342 348 348 347 346 347 347 347 347 344 340 341 341 341 341 338 335 337 338 342 343 345 346 345 346 347 345 344 344 345 343
341 342 343 347 347 347 347 346 346 347 347 346 345 342 341 341 341 342 337 335 334 336 343 344 347 344 345 347 347 348 348 347 347
337 342 346 346 345 345 346 346 344 343 344 345 344 344 342 341 341 341 342 337 333 331 335 342 345 345 344 347 345 347 348 349 349
336 336 338 343 343 344 345 345 344 344 343 343 343 343 343 342 341 342 342 342 341 333 331 333 341 344 342 345 348 349 347 347 349
329 332 332 335 337 343 344 343 342 342 344 345 344 344 344 343 343 342 342 342 343 343 340 330 331 341 343 342 343 345 347 347 346
325 327 327 327 329 334 339 344 344 342 343 342 344 346 346 346 346 345 345 344 343 343 343 343 334 329 338 341 342 341 343 344 345
322 324 324 324 324 325 329 335 342 344 344 343 341 343 346 347 346 346 346 346 346 345 345 344 344 342 330 329 334 336 337 340 343
320 321 322 322 321 323 323 327 335 341 345 344 343 343 345 346 347 347 348 348 348 348 347 347 346 345 345 341 330 327 329 332 337
317 319 320 321 320 319 320 321 326 336 343 345 343 344 347 349 348 348 348 349 349 349 349 349 348 348 347 346 346 345 338 329 328
313 318 318 319 319 318 318 320 320 326 336 342 342 344 345 345 347 350 351 351 350 350 351 352 352 352 351 350 349 349 348 347 345
309 311 316 317 317 316 317 319 320 319 323 329 338 341 341 342 346 348 352 351 350 350 351 352 353 353 352 352 352 351 351 348 348
307 308 309 312 316 315 316 316 319 319 318 320 325 333 337 341 341 343 347 348 350 352 352 351 351 352 352 352 352 352 352 352 347
306 306 307 308 310 314 314 315 317 319 319 318 321 323 327 332 335 340 340 343 344 345 346 350 351 351 352 354 353 352 351 351 351
306 305 306 307 308 310 311 312 315 317 318 318 318 320 322 323 325 331 334 341 339 342 342 347 348 353 353 354 355 353 352 352 352
304 305 305 306 307 308 310 313 314 316 317 317 317 318 319 320 323 323 328 335 341 340 343 348 350 351 351 350 352 353 352 353 352
304 304 304 305 306 307 309 312 314 315 316 317 316 317 318 319 320 323 325 329 337 345 348 349 350 352 353 354 353 353 353 352 353
305 305 305 305 306 307 308 312 312 315 315 316 317 316 317 318 318 321 325 329 333 340 347 348 348 351 353 352 354 354 353 354 353

GFSFLT1_850_thetae_084.txt.gz
Theta_e
345 346 351 351 349 349 349 348 348 349 349 348 343 342 342 341 342 349 348 349 347 349 350 350 350 343 346 346 345 343 343 346 347
348 347 347 351 351 350 349 349 349 350 350 348 347 342 341 342 342 342 348 348 350 348 349 350 352 351 348 350 347 343 344 349 345
346 349 347 350 351 352 350 349 349 350 351 349 346 345 344 342 342 341 341 348 349 349 348 350 351 348 353 351 347 341 342 350 347
341 344 348 350 352 352 351 350 350 350 350 351 351 347 348 348 348 342 341 340 342 346 349 351 345 345 347 351 353 349 341 349 351
336 338 343 348 350 351 351 350 350 350 349 350 351 352 349 348 347 350 349 341 340 340 343 347 351 345 345 346 352 354 343 344 350
332 332 334 341 344 347 348 348 349 350 350 349 349 350 350 350 351 350 342 343 341 341 340 337 348 352 351 344 350 351 345 345 353
332 329 329 330 332 336 342 344 346 348 349 349 349 350 350 349 346 345 345 343 342 344 341 341 336 341 349 352 352 351 352 347 347
332 332 330 327 327 327 328 336 340 342 343 345 347 348 349 350 351 350 346 345 344 341 343 342 341 339 336 343 350 351 351 352 354
328 329 329 329 328 327 327 326 330 338 342 342 343 345 348 350 351 351 352 351 347 344 344 343 342 342 342 338 341 345 348 350 352
324 325 325 325 326 326 326 327 326 328 336 341 343 343 347 348 348 349 351 352 351 350 345 345 346 342 343 342 342 339 338 344 347
318 317 319 321 322 323 324 324 326 326 326 333 339 344 344 344 346 349 350 350 350 352 350 350 350 348 344 343 343 343 343 336 333
316 315 315 315 316 317 320 321 322 325 325 324 326 333 339 342 343 344 348 348 349 349 352 351 351 351 350 349 345 344 344 344 343
314 314 314 314 314 314 316 317 317 320 324 324 323 322 327 332 337 342 345 346 347 349 351 349 350 353 353 352 349 346 345 345 345
312 312 312 312 313 314 315 315 315 317 320 321 321 319 320 323 329 337 340 344 346 345 346 350 350 351 351 353 353 351 348 347 347
311 311 311 312 312 312 313 314 314 316 317 319 315 313 318 320 321 324 333 340 342 344 345 346 348 350 351 354 352 351 350 349 349
310 310 311 310 311 311 312 312 314 314 315 315 317 312 310 316 320 320 321 326 333 338 340 342 345 346 350 352 355 353 356 352 351
309 310 309 309 310 310 311 311 312 313 313 314 316 317 312 312 315 319 320 320 325 328 333 332 338 345 344 346 351 354 356 357 355
307 307 307 307 308 309 310 311 312 312 312 313 314 316 317 316 316 320 319 319 322 323 326 331 336 333 339 344 348 352 353 355 356
306 306 306 306 305 306 307 309 310 312 312 312 313 315 315 315 315 316 318 319 319 320 320 323 328 333 330 328 329 335 339 343 349
305 306 305 305 304 305 307 307 308 310 312 313 312 313 315 314 314 315 316 318 319 321 320 320 321 326 327 327 330 332 336 343 341